User: anonymous   Login
Location: Unspecified
(0.0000°N, 0.0000°E)
Time: 08:26:05
(UTC+00:00)
Language:

CZ-3B DEB - Orbit

View from above orbital plane
View from above orbital plane
View from above satellite
View from above satellite

Ground track
Ground track

The orbit data is extracted from the following two-line orbital elements,

1 40186U 11077K   23344.30136167  .00000020  00000-0  00000-0 0  9990
2 40186  26.1910 317.6103 7312342 222.6909 350.7767  1.88728078 81747
Epoch (UTC): 10 December 2023 07:13:57
Eccentricity: 0.7312342
inclination: 26.1910°
perigee height: 1056 km
apogee height: 41506 km
right ascension of ascending node: 317.6103°
argument of perigee: 222.6909°
revolutions per day: 1.88728078
mean anomaly at epoch: 350.7767°
orbit number at epoch: 8174

The dashed part of the orbit path shows where the satellite is in the earth's shadow,  

DLR